Tracking 31027 objects as of 19-Jul-2025
HD Live streaming from Space Station
objects crossing your sky now

THOR ABLESTAR DEB

Track THOR ABLESTAR DEB now!
10-day predictions


NORAD ID: 408
Int'l Code: 1961-015EH
Perigee: 933.3 km
Apogee: 1,031.2 km
Inclination: 66.8 °
Period: 104.6 minutes
Semi major axis: 7353 km
RCS: 0.1296 m2 (medium)
Launch date: June 29, 1961
Source: United States (US)
Launch site: AIR FORCE EASTERN TEST RANGE (AFETR)

Note: This is SATELLITE DEBRIS
Your satellite tracking list
COSMOS 2251 DEB
Track 1 satellite(s)




NASA's NSSDC Master Catalog

Two Line Element Set (TLE):
1 00408U 61015EH  25199.42501025  .00000307  00000-0  38036-3 0  9993
2 00408  66.7844 185.8638 0066596 341.1244 173.5953 13.76839134259744
Source of the keplerian elements: AFSPC